Regional Weather Roundup
Issued by NWS Midland/Odessa, TX

Skip options and go directly to product.
Home | Oldest Version | Next Version | Current Version | All | Text Only | Save Text | Print | Product List | Glossary On

Skip product version selection by date and time.   
927
ASUS44 KMAF 190602
RWRMAF
MIDLAND AREA WEATHER ROUNDUP
NATIONAL WEATHER SERVICE MIDLAND TX
100 AM CDT TUE AUG 19 2014

...IN SOUTHWEST TEXAS AND SOUTHEAST NEW MEXICO...

CITY           SKY/WX    TMP DP  RH WIND       PRES   REMARKS
ALPINE         FAIR      68  60  74 SW7       30.10F
ANDREWS        FAIR      71  64  77 SE5       29.98S
ARTESIA        CLEAR     77  57  50 SE6       29.97S
BIG SPRING     FAIR      74  70  89 E3        29.98S
CARLSBAD       CLEAR     80  56  43 SE13      29.95R
DRYDEN           N/A     79  68  69 N3        29.92S
FORT STOCKTON  FAIR      76  65  68 SE12      29.95F
GUAD PASS      CLEAR     74  54  49 SE5       30.13S
HOBBS          FAIR      73  63  68 SE8       30.01S
MARFA          FAIR      64  61  88 CALM      30.09F
MIDLAND AIRPK  MOCLDY    74  64  70 SE6       29.97S
MIDLAND INTL   MOCLDY    73  64  73 SE6       29.96S
ODESSA         FAIR      73  64  73 SE5       29.97S
PECOS          FAIR      76  64  66 E9        29.91F
PRESIDIO       FAIR      82  62  50 CALM      29.92F
SEMINOLE       FAIR      72  63  73 SE3       30.00S
SNYDER         FAIR      70  67  90 SE5       29.97R
WINK           FAIR      76  66  71 SE8       29.92F
$$
...OTHER STATIONS IN TEXAS...

CITY           SKY/WX    TMP DP  RH WIND       PRES   REMARKS
ABILENE        FAIR      72  65  78 S6        29.94S
AMARILLO       FAIR      73  60  63 S12       30.00F
AUSTIN         MOCLDY    82  72  71 S7        29.91S
BROWNSVILLE    FAIR      76  73  91 S5        29.92S
CORPUS CHRISTI FAIR      79  74  84 S10       29.90S
DALLAS FTW     MOCLDY    83  73  72 S8        29.89F
DEL RIO        FAIR      80  70  71 E13       29.86R
EL PASO        PTCLDY    80  56  43 SW12      29.99S
HOUSTON INT    MOCLDY    81  76  84 S3        29.93S
LUBBOCK        FAIR      72  66  81 S8        30.00S
SAN ANGELO     FAIR      72  68  87 CALM      29.93S
SAN ANTONIO    CLOUDY    79  67  66 NW10      29.94F
WACO           FAIR      84  71  65 S10       29.90S
WICHITA FALLS  NOT AVBL
$$
...OTHER LOCATIONS IN NEW MEXICO...

CITY           SKY/WX    TMP DP  RH WIND       PRES   REMARKS
ALAMAGORDO     PTCLDY    73  50  43 S12       30.01R
ALBUQUERQUE    MOCLDY    76  45  33 S8        30.07S
CANNON AFB     NOT AVBL
CLOVIS           N/A     68  55  64 S7        30.07S
HOLLOMAN AFB   NOT AVBL
ROSWELL        CLEAR     75  58  55 SE8       29.97S
RUIDOSO        PTCLDY    63  48  59 SW6       30.23F
SANTA FE       CLEAR     68  41  37 E5        30.16R
TRUTH OR CONSE CLEAR     75  53  46 W7        30.02F
TUCUMCARI      CLEAR     74  49  41 S6        30.00S
$$

USA.gov is the U.S. government's official web portal to all federal, state and local government web resources and services.